Tracking 29892 objects as of 21-Nov-2024
HD Live streaming from Space Station
objects crossing your sky now

STARLINK-4003

Track STARLINK-4003 now!
10-day predictions
STARLINK-4003 is classified as:


NORAD ID: 52701
Int'l Code: 2022-053AX
Perigee: 492.7 km
Apogee: 495.0 km
Inclination: 53.2 °
Period: 94.3 minutes
Semi major axis: 6864 km
RCS: Unknown
Launch date: May 18, 2022
Source: United States (US)
Launch site: AIR FORCE EASTERN TEST RANGE (AFETR)
Your satellite tracking list
Your tracking list is empty




NASA's NSSDC Master Catalog

Two Line Element Set (TLE):
1 52701U 22053AX  24325.75882834  .00016666  00000-0  64468-3 0  9994
2 52701  53.2199  99.1110 0001649  62.7250 297.3918 15.26350584139808
Source of the keplerian elements: AFSPC